Погода в Сущёво

Россия / Костромская область     57°55′24″N   40°57′37″E
темп.,
°C
ветер,
м/с
пор.,
м/с
влажн.,
%
обл.,
%
осадки,
мм/ч
давл.,
гПа
погр.,
м
20 сентября, пн
пн2000:00+2всв41183100 0.0 1028413
03:00+1всв41282100 0.0 1028431
06:00+1всв41380100 0.0 1027498
09:00+4всв51267100 0.0 1028649
12:00+7в6956100 0.0 1027920
15:00+8в5952100 0.0 10261106
18:00+6в51058100 0.0 1026920
21:00+5в51263100 0.0 1026753
21 сентября, вт
вт2100:00+5в41264100 0.0 1025637
03:00+4в4127097 0.0 1024514
06:00+4в41272100 0.0 1023520
09:00+5в51266100 0.0 1022656
12:00+6в51175100 0.3 10221047
15:00+6в51075100 0.4 1021949
18:00+7в41172100 0.1 1020906
21:00+7в41167100 0.2 1019866
22 сентября, ср
ср2200:00+7всв41168100 0.1 1019680
03:00+6всв41178100 0.6 1018553
06:00+5всв51276100 0.1 1017559
09:00+6всв51371100 0.1 1017682
12:00+6всв51382100 0.7 1017739
15:00+6всв51389100 1.9 1017875
18:00+6в51288100 1.3 1018876
21:00+7в41189100 1.3 1018590
23 сентября, чт
чт2300:00+7всв399271 0.0 1017471
03:00+7всв41093100 0.0 1017428
06:00+7в3995100 0.0 1017472
09:00+8вюв3998100 1.4 1014451
12:00+10ююв479199 0.1 1014695
15:00+9ююв3792100 0.3 1013537
18:00+9ююв3889100 0.4 1013418
21:00+7ююв31089100 0.4 1013428
24 сентября, пт
пт2400:00+7ююв41190100 0.0 1011378
03:00+7юв3995100 0.6 1010411
06:00+7юв3997100 2.2 1008383
09:00+8ю498975 3.0 1007887
12:00+9ю5876100 0.3 10061157
15:00+10ю51069100 0.3 10061288
18:00+9ююв497597 0.1 1005638
21:00+8ююв41172100 0.1 1004555